sat.trackr.live / text

‹ back to catalog

2022-023D

NORAD 51949 · 2022-023D

PAYLOAD ACTIVE UNKNOWN

§ Identity

Operator
Country
PRC
Launch date
2022-03-05
Launch site
XICLF
Launch vehicle
Mass (kg)
RCS (m²)

External: N2YO · Heavens-Above · Gunter

§ Orbital elements

Epoch: 2026-09-20T23:26:08.101824Z

Period
94.87 min
Inclination
63.4474°
Eccentricity
0.0135266
Mean motion
15.17944329 rev/d
Perigee alt
418.9 km
Apogee alt
605.3 km
Semi-major
6,890.2 km
B*
6.7820e-4
RAAN
306.1334°
Arg perigee
352.7487°
Mean anomaly
7.1664°
Rev number
25,225

§ Raw data

2022-023D1 51949U 22023D   26263.97648266  .00017396  00000+0  67820-3 0  99952 51949  63.4474 306.1334 0135266 352.7487   7.1664 15.17944329252252

JSON: /api/v1/satellites/51949 · /tle

For live sub-satellite position, see the globe view (requires WebGL).

§ Visibility from observer

Set your observer location to see the next 7 days of passes ≥ 10°. The values pass through the URL so the page stays shareable.

No JS? Fill the form by hand. The geolocation button needs JavaScript.